Погода в Новом Еголдаеве

Россия / Рязанская область     53°44′27″N   40°18′41″E
темп.,
°C
ветер,
м/с
пор.,
м/с
влажн.,
%
обл.,
%
осадки,
мм/ч
давл.,
гПа
погр.,
м
18 мая, вт
вт1800:00+18юв5156416 0.0 1010269
03:00+17юв6166036 0.0 1010289
06:00+16юв5136696 0.0 1010231
09:00+22вюв513585 0.0 1010406
12:00+25вюв6104748 0.0 1009688
15:00+26в8135223 0.0 10081077
18:00+24вюв815614 0.0 1007677
21:00+20вюв718680 0.0 1007427
19 мая, ср
ср1900:00+18юв514634 0.0 1007328
03:00+15вюв348798 0.0 100753
06:00+16ююв3891100 0.0 1009359
09:00+19ю4571100 0.0 1009652
12:00+22юв466119 0.0 10091175
15:00+25юв59546 0.0 10072075
18:00+22юв486984 1.4 1006303
21:00+18ю398471 1.6 1006162
20 мая, чт
чт2000:00+15ююв119140 0.1 100611
03:00+14ю499278 0.3 1007351
06:00+13ююв51092100 0.1 1007463
09:00+16ююв687515 0.3 1007922
12:00+18ююв7963100 0.4 10081627
15:00+18ююв796742 1.2 10081282
18:00+17ю57734 0.3 10081049
21:00+13ю368620 0.4 100891
21 мая, пт
пт2100:00+14юз4788100 0.1 1009288
03:00+12ююз489390 0.2 1009260
06:00+12юз5995100 0.3 1010526
09:00+14зюз798190 0.5 1012950
12:00+15зюз6768100 0.2 10141337
15:00+16зюз566778 0.2 10151173
18:00+16зсз347047 0.0 1016800
21:00+14всв1179100 0.1 101712
22 мая, сб
сб2200:00+13всв2289100 0.8 101756
03:00+12всв4994100 2.0 1015345
06:00+12с5898100 15.0 1016329
09:00+12св61097100 19.8 1016434
12:00+13св5796100 0.1 1015400
15:00+15ссв4490100 0.3 1015458
18:00+15с459090 0.0 1016461
21:00+13св489498 0.0 1017361